Вернуться в каталог

STARLINK-5500

АктивенСвязьVLEO
NORAD 55634·PAYLOAD·🇺🇸 United States

Запущен Feb 17, 2023 с Vandenberg Space Force Base

Loading…

Ближайшие Пролёты (ближайшие 24 часа)

TLE

СвежийSource: CelesTrak SupGP

Эпоха: Sep 14, 2026, 22:30 UTC

1 55634C 23021G   26257.93798611  .00036931  00000+0  30951-2 0  2575
2 55634  70.0004  87.3040 0003041 270.9945 156.6256 14.98309949    10

Отслеживайте STARLINK-5500 в реальном времени с AllMySat

Download on the App Store